Time,TemperatureF,DewpointF,PressureIn,WindDirection,WindDirectionDegrees,WindSpeedMPH,WindSpeedGustMPH,Humidity,HourlyPrecipIn,Conditions,Clouds,dailyrainin,SoftwareType,DateUTC
2013-04-14 00:02:00,50.0,45.0,29.98,South,170,5.0,-999.0,81,0.00,,,-99.99,,2013-04-14 04:02:00,
2013-04-14 00:12:00,50.0,45.0,29.98,South,190,3.0,-999.0,81,0.00,,,-99.99,,2013-04-14 04:12:00,
2013-04-14 00:22:00,50.0,45.0,29.98,North,0,0.0,-999.0,81,0.00,,,-99.99,,2013-04-14 04:22:00,
2013-04-14 00:32:00,50.0,45.0,29.99,North,0,0.0,-999.0,81,0.00,,,-99.99,,2013-04-14 04:32:00,
2013-04-14 00:42:00,50.0,45.0,29.99,North,0,0.0,-999.0,81,0.00,,,-99.99,,2013-04-14 04:42:00,
2013-04-14 00:51:00,50.0,45.0,29.99,North,0,0.0,-999.0,81,0.00,,,-99.99,,2013-04-14 04:51:00,
2013-04-14 01:01:00,50.0,45.0,29.99,North,0,0.0,-999.0,81,0.00,,,-99.99,,2013-04-14 05:01:00,
2013-04-14 01:11:00,50.0,45.0,30.00,North,0,0.0,-999.0,81,0.00,,,-99.99,,2013-04-14 05:11:00,
2013-04-14 01:22:00,50.0,45.0,30.00,North,0,0.0,-999.0,81,0.00,,,-99.99,,2013-04-14 05:22:00,
2013-04-14 01:31:00,50.0,45.0,30.00,North,0,0.0,-999.0,81,0.00,,,-99.99,,2013-04-14 05:31:00,
2013-04-14 01:52:00,50.0,45.0,29.99,North,0,0.0,-999.0,81,0.00,,,-99.99,,2013-04-14 05:52:00,
2013-04-14 02:01:00,50.0,45.0,29.99,North,0,0.0,-999.0,81,0.00,,,-99.99,,2013-04-14 06:01:00,
2013-04-14 02:11:00,50.0,45.0,29.99,North,0,0.0,-999.0,81,0.00,,,-99.99,,2013-04-14 06:11:00,
2013-04-14 02:21:00,50.0,45.0,29.98,North,0,0.0,-999.0,81,0.00,,,-99.99,,2013-04-14 06:21:00,
2013-04-14 02:31:00,50.0,45.0,29.99,North,0,0.0,-999.0,81,0.00,,,-99.99,,2013-04-14 06:31:00,
2013-04-14 02:51:00,50.0,45.0,29.98,North,0,0.0,-999.0,81,0.00,,,-99.99,,2013-04-14 06:51:00,
2013-04-14 03:21:00,50.0,45.0,29.98,North,0,0.0,-999.0,81,0.00,,,-99.99,,2013-04-14 07:21:00,
2013-04-14 03:31:00,52.0,43.0,29.98,North,0,0.0,-999.0,71,0.00,,,-99.99,,2013-04-14 07:31:00,
2013-04-14 03:41:00,50.0,43.0,29.98,North,0,0.0,-999.0,76,0.00,,,-99.99,,2013-04-14 07:41:00,
2013-04-14 03:52:00,50.0,43.0,29.98,North,0,0.0,-999.0,76,0.00,,,-99.99,,2013-04-14 07:52:00,
2013-04-14 04:01:00,50.0,43.0,29.98,North,0,0.0,-999.0,76,0.00,,,-99.99,,2013-04-14 08:01:00,
2013-04-14 04:21:00,50.0,43.0,29.99,North,0,0.0,-999.0,76,0.00,,,-99.99,,2013-04-14 08:21:00,
2013-04-14 04:31:00,50.0,43.0,29.98,North,0,0.0,-999.0,76,0.00,,,-99.99,,2013-04-14 08:31:00,
2013-04-14 04:41:00,50.0,43.0,29.99,North,0,0.0,-999.0,76,0.00,,,-99.99,,2013-04-14 08:41:00,
2013-04-14 04:51:00,50.0,43.0,29.98,North,0,0.0,-999.0,76,0.00,,,-99.99,,2013-04-14 08:51:00,
2013-04-14 05:02:00,50.0,43.0,29.98,North,0,0.0,-999.0,76,0.00,,,-99.99,,2013-04-14 09:02:00,
2013-04-14 05:11:00,50.0,43.0,29.99,North,0,0.0,-999.0,76,0.00,,,-99.99,,2013-04-14 09:11:00,
2013-04-14 05:21:00,50.0,43.0,29.99,North,0,0.0,-999.0,76,0.00,,,-99.99,,2013-04-14 09:21:00,
2013-04-14 05:32:00,48.0,41.0,29.99,North,0,0.0,-999.0,76,0.00,,,-99.99,,2013-04-14 09:32:00,
2013-04-14 05:42:00,50.0,41.0,29.99,North,0,0.0,-999.0,71,0.00,,,-99.99,,2013-04-14 09:42:00,
2013-04-14 05:53:00,48.0,43.0,29.99,North,0,0.0,-999.0,81,0.00,,,-99.99,,2013-04-14 09:53:00,
2013-04-14 06:02:00,48.0,43.0,29.99,North,0,0.0,-999.0,81,0.00,,,-99.99,,2013-04-14 10:02:00,
2013-04-14 06:12:00,46.0,41.0,30.00,North,0,0.0,-999.0,81,0.00,,,-99.99,,2013-04-14 10:12:00,
2013-04-14 06:22:00,46.0,41.0,30.01,West,260,3.0,-999.0,81,0.00,,,-99.99,,2013-04-14 10:22:00,
2013-04-14 06:32:00,46.0,43.0,30.01,West,280,3.0,-999.0,87,0.00,,,-99.99,,2013-04-14 10:32:00,
2013-04-14 06:41:00,46.0,43.0,30.01,West,280,3.0,-999.0,87,0.00,,,-99.99,,2013-04-14 10:41:00,
2013-04-14 06:51:00,46.0,41.0,30.02,WNW,290,3.0,-999.0,81,0.00,,,-99.99,,2013-04-14 10:51:00,
2013-04-14 07:02:00,46.0,41.0,30.02,WNW,290,3.0,-999.0,81,0.00,,,-99.99,,2013-04-14 11:02:00,
2013-04-14 07:11:00,48.0,41.0,30.02,North,0,0.0,-999.0,76,0.00,,,-99.99,,2013-04-14 11:11:00,
2013-04-14 07:21:00,48.0,41.0,30.03,North,0,0.0,-999.0,76,0.00,,,-99.99,,2013-04-14 11:21:00,
2013-04-14 07:31:00,52.0,39.0,30.03,North,0,0.0,-999.0,61,0.00,,,-99.99,,2013-04-14 11:31:00,
2013-04-14 07:41:00,52.0,39.0,30.03,SW,230,5.0,-999.0,61,0.00,,,-99.99,,2013-04-14 11:41:00,
2013-04-14 07:52:00,52.0,37.0,30.03,WSW,240,6.0,-999.0,57,0.00,,,-99.99,,2013-04-14 11:52:00,
2013-04-14 08:01:00,52.0,37.0,30.03,WSW,240,6.0,-999.0,57,0.00,,,-99.99,,2013-04-14 12:01:00,
2013-04-14 08:11:00,54.0,36.0,30.04,WSW,250,8.0,-999.0,50,0.00,,,0.00,,2013-04-14 12:11:00,
2013-04-14 08:21:00,54.0,37.0,30.05,WSW,250,8.0,-999.0,54,0.00,,,0.00,,2013-04-14 12:21:00,
2013-04-14 08:41:00,54.0,36.0,30.05,West,260,12.0,24.0,50,0.00,,,0.00,,2013-04-14 12:41:00,
2013-04-14 08:51:00,54.0,36.0,30.05,West,270,15.0,24.0,50,0.00,,,0.00,,2013-04-14 12:51:00,
2013-04-14 09:01:00,54.0,36.0,30.05,West,270,15.0,24.0,50,0.00,,,0.00,,2013-04-14 13:01:00,
2013-04-14 09:11:00,54.0,34.0,30.05,WSW,250,14.0,22.0,46,0.00,,,-99.99,,2013-04-14 13:11:00,
2013-04-14 09:21:00,54.0,36.0,30.05,West,270,10.0,17.0,50,0.00,,,-99.99,,2013-04-14 13:21:00,
2013-04-14 09:31:00,55.0,36.0,30.05,West,280,9.0,17.0,47,0.00,,,-99.99,,2013-04-14 13:31:00,
2013-04-14 09:41:00,55.0,36.0,30.06,West,260,12.0,17.0,47,0.00,,,-99.99,,2013-04-14 13:41:00,
2013-04-14 09:52:00,55.0,36.0,30.06,West,270,13.0,24.0,47,0.00,,,-99.99,,2013-04-14 13:52:00,
2013-04-14 10:21:00,55.0,34.0,30.05,West,280,14.0,20.0,43,0.00,,,-99.99,,2013-04-14 14:21:00,
2013-04-14 10:31:00,57.0,34.0,30.06,West,270,14.0,24.0,41,0.00,,,-99.99,,2013-04-14 14:31:00,
2013-04-14 10:41:00,57.0,34.0,30.06,WSW,250,16.0,23.0,41,0.00,,,-99.99,,2013-04-14 14:41:00,
2013-04-14 10:51:00,55.0,34.0,30.06,West,280,17.0,27.0,43,0.00,,,-99.99,,2013-04-14 14:51:00,
2013-04-14 11:11:00,57.0,32.0,30.06,West,280,18.0,24.0,38,0.00,,,-99.99,,2013-04-14 15:11:00,
2013-04-14 11:32:00,57.0,34.0,30.08,WNW,290,10.0,20.0,41,0.00,,,-99.99,,2013-04-14 15:32:00,
2013-04-14 11:42:00,55.0,34.0,30.08,West,270,14.0,20.0,43,0.00,,,-99.99,,2013-04-14 15:42:00,
2013-04-14 11:52:00,57.0,32.0,30.08,WNW,290,14.0,20.0,38,0.00,,,-99.99,,2013-04-14 15:52:00,
2013-04-14 12:03:00,57.0,32.0,30.08,WNW,290,14.0,20.0,38,0.00,,,-99.99,,2013-04-14 16:03:00,
2013-04-14 12:12:00,57.0,32.0,30.08,West,270,18.0,24.0,38,0.00,,,-99.99,,2013-04-14 16:12:00,
2013-04-14 12:22:00,57.0,32.0,30.07,West,280,18.0,24.0,38,0.00,,,-99.99,,2013-04-14 16:22:00,
2013-04-14 12:32:00,57.0,30.0,30.08,West,270,17.0,24.0,35,0.00,,,-99.99,,2013-04-14 16:32:00,
2013-04-14 12:42:00,57.0,30.0,30.08,West,260,20.0,24.0,35,0.00,,,-99.99,,2013-04-14 16:42:00,
2013-04-14 12:52:00,57.0,28.0,30.07,West,280,14.0,23.0,33,0.00,,,-99.99,,2013-04-14 16:52:00,
2013-04-14 13:01:00,57.0,28.0,30.07,West,280,14.0,23.0,33,0.00,,,-99.99,,2013-04-14 17:01:00,
2013-04-14 13:11:00,57.0,28.0,30.07,West,270,22.0,22.0,33,0.00,,,-99.99,,2013-04-14 17:11:00,
2013-04-14 13:21:00,57.0,28.0,30.07,WNW,300,14.0,25.0,33,0.00,,,-99.99,,2013-04-14 17:21:00,
2013-04-14 13:32:00,59.0,30.0,30.07,West,280,15.0,22.0,33,0.00,,,-99.99,,2013-04-14 17:32:00,
2013-04-14 13:41:00,59.0,28.0,30.07,West,270,15.0,21.0,30,0.00,,,-99.99,,2013-04-14 17:41:00,
2013-04-14 14:01:00,59.0,30.0,30.07,West,280,14.0,22.0,33,0.00,,,-99.99,,2013-04-14 18:01:00,
2013-04-14 14:11:00,59.0,30.0,30.07,West,280,14.0,22.0,33,0.00,,,-99.99,,2013-04-14 18:11:00,
2013-04-14 14:21:00,59.0,30.0,30.07,West,280,14.0,22.0,33,0.00,,,-99.99,,2013-04-14 18:21:00,
2013-04-14 14:31:00,59.0,30.0,30.07,WNW,300,9.0,23.0,33,0.00,,,-99.99,,2013-04-14 18:31:00,
2013-04-14 14:42:00,61.0,30.0,30.07,WNW,290,15.0,23.0,31,0.00,,,-99.99,,2013-04-14 18:42:00,
2013-04-14 14:52:00,59.0,28.0,30.07,NW,310,13.0,23.0,30,0.00,,,-99.99,,2013-04-14 18:52:00,
2013-04-14 15:01:00,59.0,28.0,30.07,NW,310,13.0,23.0,30,0.00,,,-99.99,,2013-04-14 19:01:00,
2013-04-14 15:41:00,61.0,30.0,30.06,WNW,300,10.0,18.0,31,0.00,,,-99.99,,2013-04-14 19:41:00,
2013-04-14 15:52:00,61.0,30.0,30.06,NW,310,10.0,18.0,31,0.00,,,-99.99,,2013-04-14 19:52:00,
2013-04-14 16:01:00,61.0,30.0,30.06,NW,310,10.0,18.0,31,0.00,,,-99.99,,2013-04-14 20:01:00,
2013-04-14 16:11:00,61.0,28.0,30.06,NW,320,9.0,23.0,29,0.00,,,-99.99,,2013-04-14 20:11:00,
2013-04-14 16:21:00,59.0,28.0,30.07,NW,320,10.0,18.0,30,0.00,,,-99.99,,2013-04-14 20:21:00,
2013-04-14 16:31:00,61.0,28.0,30.07,NW,320,10.0,18.0,29,0.00,,,-99.99,,2013-04-14 20:31:00,
2013-04-14 16:41:00,61.0,28.0,30.07,NNW,340,12.0,18.0,29,0.00,,,-99.99,,2013-04-14 20:41:00,
2013-04-14 16:52:00,61.0,28.0,30.08,NW,310,12.0,18.0,29,0.00,,,-99.99,,2013-04-14 20:52:00,
2013-04-14 17:22:00,61.0,28.0,30.09,NW,310,10.0,17.0,29,0.00,,,-99.99,,2013-04-14 21:22:00,
2013-04-14 17:32:00,61.0,28.0,30.09,NW,310,9.0,-999.0,29,0.00,,,-99.99,,2013-04-14 21:32:00,
2013-04-14 17:42:00,61.0,28.0,30.09,NNW,330,7.0,-999.0,29,0.00,,,-99.99,,2013-04-14 21:42:00,
2013-04-14 17:52:00,61.0,28.0,30.09,NNW,330,9.0,-999.0,29,0.00,,,-99.99,,2013-04-14 21:52:00,
2013-04-14 18:02:00,61.0,28.0,30.09,NNW,330,9.0,-999.0,29,0.00,,,-99.99,,2013-04-14 22:02:00,
2013-04-14 18:12:00,59.0,28.0,30.10,NW,320,8.0,-999.0,30,0.00,,,-99.99,,2013-04-14 22:12:00,
2013-04-14 18:22:00,59.0,28.0,30.10,NNW,340,7.0,-999.0,30,0.00,,,-99.99,,2013-04-14 22:22:00,
2013-04-14 18:32:00,59.0,27.0,30.11,NNW,340,6.0,-999.0,28,0.00,,,-99.99,,2013-04-14 22:32:00,
2013-04-14 18:42:00,59.0,28.0,30.11,NW,320,9.0,-999.0,30,0.00,,,-99.99,,2013-04-14 22:42:00,
2013-04-14 18:52:00,59.0,27.0,30.11,North,10,3.0,-999.0,28,0.00,,,-99.99,,2013-04-14 22:52:00,
2013-04-14 19:01:00,59.0,27.0,30.11,North,10,3.0,-999.0,28,0.00,,,-99.99,,2013-04-14 23:01:00,
2013-04-14 19:11:00,57.0,27.0,30.12,NNE,20,3.0,-999.0,30,0.00,,,-99.99,,2013-04-14 23:11:00,
2013-04-14 19:21:00,57.0,27.0,30.13,North,350,6.0,-999.0,30,0.00,,,-99.99,,2013-04-14 23:21:00,
2013-04-14 19:32:00,57.0,27.0,30.13,North,350,5.0,-999.0,30,0.00,,,-99.99,,2013-04-14 23:32:00,
2013-04-14 19:42:00,57.0,27.0,30.14,North,360,6.0,-999.0,30,0.00,,,-99.99,,2013-04-14 23:42:00,
2013-04-14 19:52:00,57.0,28.0,30.14,NNE,20,5.0,-999.0,33,0.00,,,-99.99,,2013-04-14 23:52:00,
2013-04-14 20:01:00,57.0,28.0,30.14,NNE,20,5.0,-999.0,33,0.00,,,-99.99,,2013-04-15 00:01:00,
2013-04-14 20:11:00,57.0,27.0,30.15,North,0,0.0,-999.0,30,0.00,,,-99.99,,2013-04-15 00:11:00,
2013-04-14 20:21:00,57.0,28.0,30.16,ENE,70,6.0,-999.0,33,0.00,,,-99.99,,2013-04-15 00:21:00,
2013-04-14 20:32:00,55.0,28.0,30.16,ENE,60,6.0,-999.0,35,0.00,,,-99.99,,2013-04-15 00:32:00,
2013-04-14 20:51:00,55.0,28.0,30.17,NNE,30,7.0,-999.0,35,0.00,,,-99.99,,2013-04-15 00:51:00,
2013-04-14 21:11:00,55.0,27.0,30.18,NNE,30,6.0,-999.0,32,0.00,,,-99.99,,2013-04-15 01:11:00,
2013-04-14 21:21:00,55.0,27.0,30.18,NNE,20,7.0,-999.0,32,0.00,,,-99.99,,2013-04-15 01:21:00,
2013-04-14 21:31:00,55.0,27.0,30.19,NE,50,5.0,-999.0,32,0.00,,,-99.99,,2013-04-15 01:31:00,
2013-04-14 21:41:00,55.0,27.0,30.19,NE,50,3.0,-999.0,32,0.00,,,-99.99,,2013-04-15 01:41:00,
2013-04-14 21:51:00,55.0,28.0,30.19,NE,40,5.0,-999.0,35,0.00,,,-99.99,,2013-04-15 01:51:00,
2013-04-14 22:02:00,55.0,28.0,30.19,NE,40,5.0,-999.0,35,0.00,,,-99.99,,2013-04-15 02:02:00,
2013-04-14 22:11:00,54.0,27.0,30.19,NNE,20,7.0,-999.0,34,0.00,,,-99.99,,2013-04-15 02:11:00,
2013-04-14 22:21:00,54.0,28.0,30.19,NNE,30,7.0,-999.0,37,0.00,,,-99.99,,2013-04-15 02:21:00,
2013-04-14 22:31:00,54.0,28.0,30.20,ENE,70,7.0,-999.0,37,0.00,,,-99.99,,2013-04-15 02:31:00,
2013-04-14 22:41:00,54.0,28.0,30.20,ENE,60,8.0,-999.0,37,0.00,,,-99.99,,2013-04-15 02:41:00,
2013-04-14 22:52:00,54.0,28.0,30.19,NE,50,7.0,-999.0,37,0.00,,,-99.99,,2013-04-15 02:52:00,
2013-04-14 23:01:00,54.0,28.0,30.19,NE,50,7.0,-999.0,37,0.00,,,-99.99,,2013-04-15 03:01:00,
2013-04-14 23:21:00,54.0,28.0,30.21,East,80,6.0,-999.0,37,0.00,,,-99.99,,2013-04-15 03:21:00,
2013-04-14 23:32:00,54.0,28.0,30.21,East,80,8.0,-999.0,37,0.00,,,-99.99,,2013-04-15 03:32:00,
2013-04-14 23:42:00,54.0,28.0,30.21,ENE,70,13.0,-999.0,37,0.00,,,-99.99,,2013-04-15 03:42:00,
2013-04-14 23:52:00,52.0,28.0,30.21,East,80,9.0,-999.0,40,0.00,,,-99.99,,2013-04-15 03:52:00,